Wind_Speed
43 42 42 41 40 40 42 42 42 45 48 51 56 60 64 68 73 78 81 86 88 87 84 85 90 89 89 86 81 78 76 74 63 52 47 44 37 35 34 34 38 32 33
40 39 36 35 34 34 36 37 39 42 43 45 47 53 59 64 67 72 75 79 83 85 82 80 81 84 85 85 85 79 77 73 72 57 48 40 40 36 39 41 33 37 35
33 30 30 30 32 34 36 36 39 40 42 42 42 46 51 56 61 63 67 72 75 77 78 79 76 70 71 82 80 83 79 72 66 58 45 41 37 36 40 40 39 33 39
29 29 26 30 34 37 40 44 44 43 40 39 39 40 40 44 50 54 57 62 67 66 71 75 75 72 69 44 55 73 84 71 66 56 43 36 34 42 40 42 42 37 35
24 27 31 35 38 39 40 37 36 36 34 33 34 35 35 33 37 43 49 55 58 62 68 73 73 75 77 62 43 57 64 71 60 58 42 38 36 39 46 46 38 40 37
27 31 35 38 36 34 31 29 29 29 30 30 31 31 33 33 35 38 44 52 54 60 66 71 74 77 81 79 51 44 58 67 62 54 46 40 42 43 47 46 36 43 46
27 34 38 37 32 27 24 22 22 24 24 24 25 28 31 33 34 37 41 47 50 56 65 71 75 76 78 79 71 49 49 50 57 60 46 52 53 51 50 48 40 40 45
35 40 38 32 27 20 16 15 16 16 17 20 24 26 28 31 35 37 39 44 50 57 63 72 73 73 75 70 68 66 51 50 57 56 52 51 50 47 48 40 37 44 45
38 38 34 28 19 13 10 10 11 12 14 17 20 23 27 31 31 34 40 44 51 58 63 67 68 69 69 68 67 65 56 55 49 62 57 53 57 53 41 38 42 49 48
35 33 30 20 9 6 5 6 7 9 12 14 20 26 28 31 34 39 43 48 52 57 63 67 67 65 63 66 60 61 55 58 62 58 62 54 53 55 55 50 48 44 47
32 29 19 6 1 2 3 5 7 14 16 21 23 26 27 31 36 39 44 50 53 55 62 65 65 62 61 65 62 59 47 52 61 61 57 57 53 50 52 52 52 52 54
29 21 7 3 6 6 7 9 12 17 20 22 24 26 29 32 36 39 42 48 54 57 60 63 64 65 68 71 69 65 59 57 58 60 60 55 55 55 53 57 53 56 56
22 9 4 8 11 10 13 15 15 19 22 27 31 30 33 36 39 44 46 50 54 58 62 68 69 68 67 64 61 72 64 52 54 56 58 54 53 54 49 46 48 52 55
13 7 7 12 14 15 16 19 17 21 26 30 32 36 38 39 42 44 49 52 59 58 66 68 72 69 65 66 62 71 70 58 52 51 50 52 53 53 49 55 54 54 58
10 8 11 15 14 15 16 21 22 26 29 33 35 39 37 40 43 44 49 50 57 52 68 68 68 69 66 56 65 65 59 53 53 53 51 50 55 52 51 55 58 54 55
10 10 14 17 13 14 14 20 25 31 33 32 35 36 35 40 41 47 50 47 51 56 66 69 63 65 68 53 56 66 57 56 55 53 52 53 52 56 55 52 54 61 57
15 13 16 16 17 17 19 23 27 35 35 32 33 31 35 38 43 45 44 45 52 61 67 70 61 59 64 55 55 59 61 56 53 57 53 52 54 53 53 52 51 52 64
22 18 15 13 13 17 17 25 30 37 35 37 29 29 31 34 35 39 38 45 55 55 70 67 51 59 49 45 62 56 54 52 48 52 57 56 57 58 58 57 60 62 63
24 24 15 13 10 16 18 20 25 36 33 38 33 27 30 31 33 32 30 41 49 59 54 65 51 59 49 49 53 52 51 54 50 49 58 58 56 58 63 65 66 69 68
21 25 23 15 12 13 14 19 22 41 38 29 34 32 32 30 29 38 35 32 39 49 64 55 51 55 52 48 44 42 37 48 60 54 55 60 54 57 59 60 60 64 66
16 20 21 18 13 11 14 14 20 26 40 33 36 33 29 31 29 26 33 33 29 38 60 60 52 50 50 45 40 40 48 48 47 49 53 53 58 56 54 56 59 64 66
18 16 18 17 11 10 15 18 19 21 39 39 32 31 33 27 25 26 22 27 27 31 49 50 54 50 44 50 43 44 50 51 50 49 49 58 58 61 62 63 68 70 73
23 18 19 16 14 12 11 19 21 24 36 42 35 31 30 28 31 29 26 26 27 25 26 35 40 54 49 46 47 50 48 48 52 54 54 56 61 60 62 68 73 73 77
22 23 20 20 21 17 16 19 21 20 23 36 32 26 23 25 31 31 31 29 27 30 29 35 36 45 51 46 46 48 50 54 56 53 57 59 58 61 64 70 77 77 75
17 20 21 23 26 27 23 23 22 20 19 25 30 23 16 17 15 21 22 26 26 27 23 31 47 40 42 39 42 46 49 51 54 56 60 61 58 57 60 64 68 70 73
11 13 19 19 20 23 20 18 20 23 20 18 24 25 24 24 20 20 21 22 22 20 21 23 25 28 37 45 37 37 38 35 39 42 46 52 54 55 60 65 66 70 73
Wind_Direction
289 284 280 275 271 266 263 261 259 254 253 251 248 247 246 244 240 236 233 232 232 231 228 227 226 223 224 225 226 226 230 233 235 240 246 251 259 265 269 271 273 281 260
287 283 280 278 274 273 272 273 271 266 262 255 251 247 243 242 239 237 233 231 230 229 226 224 223 223 223 224 227 227 230 232 235 240 245 241 251 253 256 278 257 256 263
285 282 282 285 285 289 289 287 283 275 267 259 254 246 241 238 238 236 233 231 229 226 223 221 219 216 221 226 229 231 229 231 233 237 240 238 252 262 267 269 259 264 274
294 293 290 290 293 297 294 285 279 271 264 256 249 244 239 234 233 232 231 229 226 222 215 215 212 206 204 221 236 233 231 229 230 229 230 235 246 252 254 259 261 264 270
305 308 307 304 300 296 288 279 272 266 258 251 245 241 237 232 227 224 224 223 221 214 210 209 205 201 190 192 209 221 221 224 225 227 228 237 251 251 253 255 258 267 275
324 321 311 304 299 293 283 274 264 259 254 248 241 236 233 226 220 217 215 213 211 206 204 202 200 199 197 203 210 215 218 220 222 226 231 243 244 251 258 258 263 266 278
325 319 310 305 299 292 283 268 257 252 245 238 233 227 224 219 210 207 206 205 201 198 196 196 196 197 196 201 211 202 211 215 218 225 228 238 239 245 253 263 266 269 265
321 317 313 303 300 289 270 262 256 244 238 227 217 215 212 207 201 198 194 190 187 188 188 191 190 196 197 197 199 199 205 207 217 217 227 238 237 242 244 261 264 266 265
320 316 311 306 302 276 261 251 240 231 223 212 207 203 198 194 191 187 182 181 180 181 182 184 185 190 193 194 196 201 200 204 216 220 229 233 235 239 239 247 253 268 269
322 318 315 310 289 275 241 234 219 198 178 184 189 188 184 180 178 177 173 174 176 175 176 181 181 182 186 188 193 198 202 208 216 220 226 233 233 241 240 254 257 272 277
326 318 319 304 299 156 165 174 164 151 159 171 176 170 167 170 168 170 170 169 169 171 177 179 176 177 182 186 190 194 199 204 213 223 225 233 240 241 240 254 267 264 265
325 324 338 45 103 106 131 124 147 156 157 158 161 162 163 164 164 162 163 166 170 170 174 171 175 177 184 188 192 198 206 212 219 224 228 233 239 247 251 251 265 265 268
327 353 32 95 101 103 113 132 138 143 146 153 152 152 150 152 155 159 162 164 166 169 172 175 179 177 182 182 196 203 207 213 222 227 231 234 242 247 253 261 270 270 271
353 43 84 105 96 108 117 129 134 138 147 150 150 145 143 149 155 158 161 162 163 170 172 176 180 178 183 193 201 204 209 216 225 232 238 239 245 251 261 262 267 269 273
26 85 97 99 101 114 115 129 136 142 150 149 144 141 146 153 156 159 162 165 162 174 175 175 174 183 184 191 202 202 209 221 231 236 240 246 250 258 264 262 265 269 273
59 100 100 110 109 121 117 128 140 153 153 150 144 139 143 147 152 161 163 169 176 174 175 172 182 192 192 196 208 207 214 224 233 237 244 252 254 255 260 265 269 270 276
69 92 104 112 115 121 132 139 142 154 151 150 141 150 149 145 154 152 164 171 172 176 176 176 188 189 195 199 203 209 218 229 237 241 245 250 251 257 259 265 272 272 278
62 71 81 106 118 138 144 152 157 161 164 150 152 158 157 139 149 152 165 166 171 178 180 180 186 193 197 211 211 215 223 233 242 245 249 251 251 256 260 269 274 279 278
61 58 68 81 110 146 160 160 165 163 163 166 164 165 153 142 149 149 160 170 168 177 178 184 183 191 197 202 208 218 225 227 237 243 243 251 258 261 264 272 277 279 282
69 66 66 74 93 139 138 169 171 167 165 174 177 182 155 151 156 153 158 166 174 178 175 179 180 187 191 199 208 217 231 234 237 249 250 253 258 261 269 274 276 274 278
72 65 58 64 80 106 152 155 176 176 176 175 183 174 175 189 168 176 171 172 181 183 185 191 196 199 200 212 219 228 238 235 243 248 251 260 263 267 267 270 274 275 276
57 58 52 46 93 120 138 155 155 170 185 190 189 185 189 186 192 185 188 180 191 192 188 198 202 210 216 220 227 236 239 236 245 254 260 260 260 265 271 273 276 279 284
45 52 42 47 96 102 137 155 146 160 181 196 193 197 199 197 191 195 191 187 183 178 198 211 210 214 219 225 232 241 244 244 252 257 261 265 264 271 277 281 285 288 288
37 44 47 67 91 97 100 143 146 146 166 191 191 198 208 200 203 208 197 199 205 206 216 216 215 220 223 230 238 241 248 252 258 263 265 269 272 281 283 283 284 284 285
46 49 53 71 92 93 98 115 127 129 143 175 182 183 174 191 189 208 217 225 231 235 244 234 225 235 241 259 257 257 257 267 267 267 269 269 275 274 275 278 281 284 288
70 68 60 63 77 91 100 106 113 110 129 151 195 207 213 212 215 212 218 209 226 232 243 249 250 246 251 253 257 263 261 269 269 269 269 273 275 284 286 287 287 288 290
Height
10652 10649 10648 10646 10646 10645 10645 10645 10647 10648 10649 10651 10654 10657 10659 10664 10672 10681 10694 10708 10721 10738 10760 10779 10796 10812 10827 10839 10845 10849 10856 10865 10873 10881 10881 10885 10887 10889 10890 10890 10889 10887 10887
10642 10637 10634 10633 10633 10633 10632 10633 10633 10633 10634 10635 10638 10639 10643 10647 10654 10663 10678 10691 10705 10723 10744 10764 10783 10803 10818 10829 10834 10841 10847 10855 10866 10873 10875 10877 10881 10882 10883 10884 10882 10881 10882
10631 10628 10626 10623 10621 10621 10621 10619 10618 10618 10618 10619 10621 10624 10629 10634 10641 10651 10663 10675 10691 10710 10732 10750 10772 10795 10811 10820 10826 10831 10838 10848 10858 10865 10868 10872 10874 10876 10877 10876 10875 10875 10875
10621 10619 10617 10614 10613 10610 10608 10605 10603 10602 10604 10605 10608 10612 10617 10622 10631 10641 10651 10663 10678 10697 10718 10735 10758 10780 10797 10823 10817 10816 10832 10840 10850 10857 10863 10866 10869 10869 10869 10868 10868 10869 10867
10613 10610 10607 10604 10602 10599 10596 10592 10589 10589 10591 10594 10598 10601 10607 10614 10622 10631 10641 10653 10666 10685 10703 10722 10743 10761 10784 10790 10787 10803 10817 10832 10843 10851 10857 10860 10862 10861 10860 10861 10861 10861 10861
10604 10602 10599 10595 10592 10587 10583 10581 10580 10580 10582 10585 10588 10593 10599 10606 10613 10622 10631 10642 10656 10674 10692 10711 10731 10747 10767 10778 10788 10800 10812 10824 10837 10845 10851 10854 10855 10852 10850 10852 10853 10854 10852
10600 10595 10590 10585 10580 10576 10573 10572 10573 10573 10574 10577 10581 10586 10592 10599 10607 10615 10624 10636 10652 10667 10683 10701 10720 10737 10756 10771 10786 10801 10808 10819 10829 10837 10845 10844 10843 10841 10843 10844 10846 10846 10846
10594 10587 10580 10575 10572 10568 10567 10566 10567 10567 10569 10571 10575 10580 10587 10594 10601 10610 10620 10632 10646 10662 10679 10695 10716 10731 10747 10762 10780 10791 10804 10812 10821 10830 10831 10831 10831 10830 10834 10837 10840 10839 10839
10587 10579 10573 10568 10566 10563 10562 10563 10564 10564 10566 10568 10573 10579 10585 10592 10601 10610 10620 10631 10644 10660 10678 10696 10713 10728 10742 10759 10776 10785 10796 10809 10813 10816 10819 10821 10822 10823 10828 10831 10832 10831 10832
10581 10574 10568 10564 10561 10561 10560 10561 10562 10563 10565 10570 10574 10579 10585 10592 10600 10609 10619 10631 10645 10661 10679 10694 10712 10727 10743 10760 10773 10782 10791 10801 10802 10808 10810 10811 10814 10817 10820 10822 10822 10822 10822
10577 10571 10565 10560 10560 10560 10560 10561 10562 10564 10568 10572 10575 10581 10588 10595 10603 10613 10623 10634 10648 10663 10677 10693 10712 10729 10743 10758 10769 10777 10784 10790 10796 10796 10799 10802 10805 10809 10812 10814 10815 10814 10814
10575 10569 10563 10561 10560 10560 10561 10563 10565 10567 10570 10574 10579 10584 10591 10599 10607 10617 10628 10639 10650 10663 10680 10698 10713 10726 10738 10750 10761 10770 10777 10783 10783 10785 10789 10795 10799 10803 10805 10806 10806 10806 10805
10574 10568 10564 10563 10563 10563 10564 10567 10569 10571 10573 10577 10582 10589 10596 10602 10610 10618 10631 10643 10654 10668 10683 10698 10710 10721 10733 10746 10753 10759 10766 10773 10774 10777 10782 10788 10793 10797 10797 10796 10797 10794 10793
10572 10569 10567 10566 10566 10568 10569 10570 10574 10577 10579 10583 10589 10594 10601 10607 10615 10624 10635 10646 10658 10672 10684 10698 10709 10719 10732 10740 10745 10753 10760 10762 10765 10772 10778 10782 10786 10787 10788 10789 10788 10785 10783
10573 10571 10571 10570 10572 10574 10575 10576 10580 10584 10586 10590 10596 10599 10606 10612 10621 10631 10640 10650 10660 10670 10684 10694 10708 10717 10726 10734 10742 10750 10754 10759 10761 10766 10771 10775 10778 10779 10780 10779 10777 10775 10774
10575 10575 10575 10575 10577 10578 10581 10583 10587 10590 10593 10597 10603 10608 10616 10621 10626 10635 10645 10654 10664 10672 10685 10699 10706 10713 10723 10731 10739 10743 10749 10752 10755 10760 10765 10767 10769 10769 10769 10768 10767 10764 10763
10580 10579 10580 10580 10582 10584 10586 10589 10594 10598 10602 10607 10613 10617 10622 10628 10632 10639 10648 10658 10666 10676 10687 10697 10703 10713 10721 10727 10734 10740 10744 10747 10750 10755 10759 10759 10761 10759 10761 10759 10757 10754 10751
10586 10585 10585 10586 10586 10589 10592 10595 10599 10604 10609 10615 10619 10623 10629 10634 10638 10643 10650 10660 10670 10678 10689 10698 10706 10714 10720 10725 10732 10735 10737 10742 10747 10750 10751 10751 10751 10753 10751 10750 10748 10746 10744
10592 10591 10590 10590 10591 10593 10596 10600 10605 10610 10616 10620 10624 10628 10637 10641 10646 10651 10656 10663 10671 10681 10690 10694 10700 10709 10715 10721 10727 10731 10737 10738 10739 10742 10743 10740 10742 10743 10743 10741 10741 10738 10734
10598 10597 10596 10595 10595 10597 10600 10604 10609 10616 10621 10626 10631 10636 10644 10647 10651 10656 10660 10666 10673 10678 10687 10695 10701 10707 10711 10716 10722 10726 10730 10732 10733 10734 10735 10736 10735 10733 10735 10734 10730 10727 10724
10603 10602 10600 10600 10599 10600 10602 10607 10611 10618 10624 10630 10633 10642 10647 10651 10656 10661 10667 10671 10677 10685 10691 10697 10703 10707 10709 10713 10718 10722 10723 10724 10725 10726 10728 10727 10726 10728 10725 10723 10719 10715 10710
10607 10606 10605 10603 10604 10604 10605 10609 10614 10620 10627 10632 10637 10643 10649 10655 10661 10665 10671 10676 10682 10688 10696 10700 10704 10708 10711 10713 10714 10716 10717 10718 10720 10720 10721 10719 10722 10722 10717 10711 10708 10703 10700
10611 10610 10608 10605 10606 10607 10608 10612 10617 10622 10629 10635 10641 10645 10652 10660 10664 10669 10675 10680 10685 10690 10695 10699 10702 10704 10706 10710 10711 10714 10713 10715 10714 10714 10714 10715 10713 10710 10705 10701 10696 10690 10686
10616 10614 10613 10610 10609 10611 10612 10615 10621 10626 10632 10639 10645 10650 10655 10661 10667 10672 10678 10683 10686 10689 10693 10696 10698 10701 10704 10707 10708 10708 10707 10707 10708 10709 10707 10705 10703 10700 10695 10690 10684 10678 10672
10618 10618 10617 10617 10615 10616 10619 10622 10626 10631 10637 10643 10649 10653 10657 10662 10666 10671 10675 10678 10682 10685 10689 10692 10695 10696 10698 10698 10698 10699 10701 10702 10701 10699 10695 10695 10693 10689 10683 10676 10671 10663 10653
10620 10620 10620 10620 10622 10624 10626 10629 10632 10637 10641 10646 10651 10654 10657 10662 10665 10669 10673 10676 10679 10682 10686 10687 10689 10691 10692 10692 10693 10693 10693 10693 10690 10687 10684 10680 10679 10674 10669 10663 10655 10645 10636